星链-37644(STARLINK-37644)

导读

STARLINK-37644(NORAD编号69042)是美国SpaceX公司星链(Starlink)星座的一员,属于低轨宽带通信卫星。星链项目旨在通过近地轨道卫星组网,为全球提供高速低延迟互联网服务,重点覆盖偏远地区、海洋及空中交通等地面基础设施难以覆盖的区域。 该卫星运行于近地轨道,是SpaceX大规模部署星链星座的组成部分。2026年SpaceX计划将包括这一批次在内的约4400颗星链卫星轨道高度从550公里降至480公里,以提升太空安全性,降低碰撞风险,减少太空碎片隐患。目前STARLINK-37644保持在轨运行,参与全球卫星互联网服务组网。

Basic Information
目录编号:
69042
目录名称:
STARLINK-37644
国际标识:
2026-101T
轨道中心:
EARTH
卫星名称:
星链-37644
卫星全名:
星链-37644(STARLINK-37644)
卫星状态:
在轨 (已飞行129 天)
发射日期:
2026-05-06 UTC
国别 :
美国 (US)
星等 :
--
This satellite is enrolled in the Space Conjunction Data Service (SCDS) and the current flight risk assessment level is: No High Risk
Orbit Information
数据来源 国际轨道数据 AOE轨道数据
星历时间 2026-09-12T10:39:55+0800
10小时前
查看轨道信息
2026-09-10T00:00:00+0800
2天前
查看轨道信息
半长轴 6843.706km 6843.727km
偏心率 0.0002484 0.0002151
轨道倾角 97.285° 97.286°
近地点辐角 89.024° 110.474°
升交点赤经 108.719° 106.311°
平近点角 271.129° 84.505°
近地点 463.869km 464.117km
远地点 467.269km 467.063km
周期 93.907分钟 93.907分钟
每日圈数 15.334365 15.334295
Detailed Information
固有亮度:
5
最大亮度:
2.5
卫星平台:
Starlink V1.0
覆盖范围:
全球
运营商:
太空探索技术公司
运营商所在国:
美国
制造商(研发单位):
太空探索技术公司
制造商所在国:
美国
使用方式:
暂无
Satellite Introduction
Starlink 计划是 SpaceX 推出的全球卫星互联网项目,通过发射低轨道卫星,为全球尤其是偏远地区提供高速、低延迟的互联网服务。自 2019 年起,Starlink 已部署数千颗卫星,旨在缩小全球数字鸿沟,推动互联网普及。该项目还为军事、航空等行业提供通信支持,带来广泛经济效益。
2D Orbit Map
3D Orbit Map
Orbit Altitude Analysis Chart
Orbit Inclination Analysis Chart
Orbit Comprehensive Analysis Chart
View Comprehensive Chart
Conjunction Data List
Event ID Objects TCA Miss Dist (km) Collision Risk Probability Collision Risk Index (CRI) Action
CDM_260913-205204-868606-904221
2026-09-13T
20:52:31+0000
1.810 km
极远距离
3.734968E-6 低风险 0.46
CDM_260914-021206-509206-904221
2026-09-14T
02:12:16+0000
1.970 km
极远距离
2.758139E-6 低风险 0.44
CDM_260913-181206-494406-904221
2026-09-13T
18:12:23+0000
1.137 km
极远距离
2.64902E-6 低风险 0.43
CDM_260912-163205-175206-904221
2026-09-12T
16:32:48+0000
2.034 km
极远距离
2.055066E-6 低风险 0.41
CDM_260913-191905-356006-904221
2026-09-13T
19:19:06+0000
2.361 km
极远距离
1.950787E-6 低风险 0.41
CDM_260913-030804-602906-904221
2026-09-13T
03:08:42+0000
2.581 km
极远距离
1.59196E-6 低风险 0.39
CDM_260913-164806-410506-904221
2026-09-13T
16:48:33+0000
2.671 km
极远距离
1.469974E-6 低风险 0.38
CDM_260905-122804-738106-904223
2026-09-05T
12:28:27+0000
2.821 km
极远距离
1.447208E-6 低风险 0.38
CDM_260913-070405-082906-904222
2026-09-13T
07:04:34+0000
2.501 km
极远距离
1.392682E-6 低风险 0.38
CDM_260913-203306-494406-904221
2026-09-13T
20:33:21+0000
1.398 km
极远距离
1.385009E-6 低风险 0.38
Miss Distance Evolution Trend with All Objects
Collision Probability Evolution Trend with All Objects